Regional Weather Roundup
Issued by NWS

Home | Current Version | Previous Version | Graphics & Text | Print | Product List | Glossary On
Versions: 1 2 3 4 5 6 7 8 9 10 11 12 13 14 15 16 17 18 19 20 21 22 23 24 25 26 27 28 29 30 31 32 33 34 35 36 37 38 39 40 41 42 43 44 45 46 47 48 49 50
000
ASUS43 KDMX 212107
RWRIA

WEATHER ROUNDUP FOR IOWA
NATIONAL WEATHER SERVICE DES MOINES IA
400 PM CDT THU AUG 21 2014

NOTE: "FAIR" INDICATES FEW OR NO CLOUDS BELOW 12,000 FEET WITH NO
SIGNIFICANT WEATHER AND/OR OBSTRUCTIONS TO VISIBILITY.

* - THESE STATIONS ARE NOT NWS STATIONS...THUS NOT UNDER NWS
QUALITY CONTROL.  THEY ALSO DO NOT REPORT WEATHER SUCH
AS PRECIPITATION OR FOG.

IAZ001>003-012>014-020>022-031>034-043>046-212200-
   NORTHWEST IOWA

CITY           SKY/WX    TMP DP  RH WIND       PRES   REMARKS
CARROLL *      PTSUNNY   84  75  74 S13G20    29.84S HX  92
CHEROKEE *     MOSUNNY   86  75  70 S10       29.81S HX  95
DENISON *      SUNNY     86  75  70 S10G17    29.82R HX  95
LE MARS *      SUNNY     88  75  66 SW9G17    29.81R HX  97
ORANGE CITY *  SUNNY     88  72  58 W10       29.82R HX  94
SHELDON *      SUNNY     86  77  74 SW12      29.81R HX  97
SIOUX CITY     MOSUNNY   89  75  63 W6        29.80S HX  99
SPENCER        SUNNY     87  74  64 SW14      29.81R HX  95
STORM LAKE *   MOSUNNY   84  79  84 SW12G17   29.84R HX  96
$$

IAZ055>058-069>071-079>083-090>094-212200-
   SOUTHWEST IOWA

CITY           SKY/WX    TMP DP  RH WIND       PRES   REMARKS
ATLANTIC *     SUNNY     86  73  66 S9G16     29.85S HX  93
AUDUBON *      SUNNY     88  77  70 S13       29.87S HX 100
CLARINDA *     SUNNY     90  79  70 VRB5      29.86S HX 105
COUNCIL BLFS * SUNNY     88  73  62 SW6       29.83F HX  96
CRESTON *      SUNNY     82  75  78 S10G17    29.89S HX  89
HARLAN  *      MOSUNNY   86  75  70 SW10G17   29.88S HX  95
LAMONI         CLOUDY    86  75  69 S7        29.88S HX  95
RED OAK *      MOSUNNY   86  75  70 CALM      29.85F HX  95
SHENANDOAH *   SUNNY     88  77  70 CALM      29.84F HX 100
$$

IAZ047>049-059>061-072>074-084-212200-
   CENTRAL IOWA

CITY           SKY/WX    TMP DP  RH WIND       PRES   REMARKS
AMES           MOSUNNY   86  74  67 S14       29.84S HX  94
ANKENY *       MOSUNNY   86  77  74 S13       29.85R HX  97
CHARITON *     MOSUNNY   84  75  74 S8        29.88R HX  92
DES MOINES     MOSUNNY   86  75  69 S14       29.85S HX  95
GRINNELL*      MOSUNNY   82  72  69 SE12      29.89R HX  87
KNOXVILLE *    MOSUNNY   84  75  74 S8G15     29.86R HX  92
MARSHALLTOWN   SUNNY     84  72  67 S16       29.84S HX  89
PELLA *        MOSUNNY   86  75  70 S8        29.88R HX  95
PERRY *        PTSUNNY   86  75  70 S13G18    29.84S HX  95
$$

IAZ004>006-015-016-023>025-035-036-212200-
   NORTH CENTRAL IOWA

CITY           SKY/WX    TMP DP  RH WIND       PRES   REMARKS
ALGONA *       MOSUNNY   86  73  66 SW16      29.82R HX  93
CLARION *      SUNNY     88  72  58 S16G22    29.82R HX  94
ESTHERVILLE    SUNNY     85  72  65 SW12G21   29.80S HX  91
FORT DODGE *   MOSUNNY   86  72  62 SW13G23   29.83S HX  92
MASON CITY     SUNNY     89  71  55 S14G23    29.83S HX  95
FOREST CITY *  SUNNY     86  70  58 S15G22    29.82R HX  90
IOWA FALLS *     N/A     84  72  65 S20       29.84S HX  89
$$

IAZ007>011-017>019-026>030-037>042-050>054-066-212200-
   NORTHEAST IOWA

CITY           SKY/WX    TMP DP  RH WIND       PRES   REMARKS
CEDAR RAPIDS   LGT RAIN  77  75  93 S14       29.87S
CHARLES CITY * SUNNY     82  73  74 S9G15     29.84R HX  88
CLINTON *      CLOUDY    77  73  88 S15       29.90F
DECORAH *      PTSUNNY   79  73  83 VRB7G13   29.85R HX  82
DUBUQUE        CLOUDY    75  73  93 S14       29.87R
MONTICELLO *   MOSUNNY   77  73  88 S14G26    29.85F
OELWEIN *      CLOUDY    77  72  83 S10G17    29.86S
WATERLOO       PTSUNNY   82  70  66 S18       29.82S HX  86
$$

IAZ064-065-067-068-078-212200-
   EAST CENTRAL IOWA

CITY           SKY/WX    TMP DP  RH WIND       PRES   REMARKS
DAVENPORT      LGT RAIN  78  73  84 S7        29.92S HX  81
IOWA CITY      CLOUDY    79  76  90 CALM      29.91F THUNDER HX  83
MT. PLEASANT * PTSUNNY   86  72  62 SE7       29.89F HX  92
MUSCATINE *    SUNNY     86  73  66 SE10      29.88F HX  93
QUAD CITIES    CLOUDY    82  73  74 SE5       29.90F HX  87
$$

IAZ062-063-075>077-085>089-095>099-212200-
   SOUTHEAST IOWA

CITY           SKY/WX    TMP DP  RH WIND       PRES   REMARKS
BURLINGTON     CLOUDY    86  75  69 SE3       29.90F HX  95
FAIRFIELD *    SUNNY     84  72  65 SE10      29.89F HX  89
FORT MADISON * SUNNY     88  77  70 CALM      29.91F HX 100
KEOKUK *       SUNNY     88  77  70 S6        29.89F HX 100
OSKALOOSA *      N/A     86  77  74 SE8       29.88F HX  97
CENTERVILLE *  MOSUNNY   86  77  74 S7        29.90R HX  97
OTTUMWA        MOSUNNY   86  75  69 SE9       29.86F HX  95
WASHINGTON *   SUNNY     84  75  74 SE9       29.88F HX  92
$$

ABBREVIATIONS USED IN REMARKS
   TC - TEMPERATURES IN CELSIUS
  WCI - WIND CHILL INDEX
   HX - HEAT INDEX
  VSB - VISIBILITY
$$



USA.gov is the U.S. government's official web portal to all federal, state and local government web resources and services.